Wind_Speed
62 58 55 54 53 49 49 50 51 51 50 49 45 42 40 37 37 36 32 27 25 24 21 21 18 18 14 12 8 6 17 9 8 5 12 15 20 24 22 28 37 40 42 48 43
64 62 58 57 55 52 49 49 50 51 52 51 48 44 43 41 38 39 36 30 28 27 26 25 24 24 15 16 11 6 5 7 6 5 9 11 13 17 23 26 32 34 37 42 41
61 66 62 59 59 56 53 51 50 52 52 51 52 50 46 46 42 40 40 34 32 29 29 27 24 20 19 19 16 13 3 11 10 7 9 8 11 13 15 18 21 29 29 35 39
54 64 66 63 61 58 56 55 54 52 53 54 53 54 50 49 46 45 41 39 37 34 31 31 27 22 24 22 21 12 21 14 8 10 11 3 8 13 14 17 19 25 24 33 36
52 53 65 66 65 61 59 57 57 56 55 55 56 56 55 52 51 49 47 42 40 39 36 34 33 28 28 26 25 26 22 13 16 8 6 7 10 12 15 15 18 19 19 24 32
52 52 54 64 68 66 63 60 59 58 56 56 57 58 58 57 57 54 51 48 44 43 42 39 36 35 35 31 30 26 25 23 14 21 19 19 21 15 13 16 12 15 19 22 24
48 51 52 54 62 69 68 65 62 61 61 59 59 59 60 59 60 59 56 54 52 49 46 45 43 39 40 39 34 33 31 25 14 26 18 21 15 12 12 7 9 15 18 20 19
42 47 51 53 55 61 68 72 68 66 64 62 61 62 62 62 63 64 64 60 57 54 51 50 48 49 44 43 41 37 35 29 24 17 22 24 20 21 16 17 18 14 15 16 18
42 44 47 51 54 56 60 66 72 71 70 68 67 65 63 65 67 65 65 64 63 61 57 56 55 52 51 49 50 45 41 36 33 29 26 26 25 24 21 20 22 16 16 16 16
44 45 46 48 51 55 58 59 65 72 75 74 73 70 69 67 67 69 68 67 66 65 66 63 61 59 57 57 55 53 50 45 40 41 36 16 24 24 20 20 24 24 22 18 17
47 48 47 47 49 51 54 59 62 66 74 77 77 76 73 72 71 67 68 69 69 68 70 67 64 66 65 65 60 57 54 52 49 45 46 46 32 27 27 30 33 26 22 23 21
40 47 50 49 50 51 52 54 58 63 67 70 76 78 80 78 74 73 73 72 71 71 70 69 70 74 70 70 66 63 61 61 57 54 51 51 48 43 36 36 35 29 31 27 29
33 37 45 51 53 53 53 53 55 58 60 63 67 70 75 79 80 80 79 78 77 76 75 73 76 76 73 73 74 72 71 70 67 62 58 55 54 51 47 44 42 35 38 34 34
35 35 37 41 48 54 55 56 58 59 60 60 61 64 67 72 74 76 81 83 83 82 80 78 82 80 78 76 77 73 73 75 72 70 65 60 60 58 53 50 48 45 43 42 36
41 40 40 40 42 43 49 56 59 61 61 61 64 64 65 67 69 72 73 75 78 82 85 85 86 84 82 80 80 77 79 78 74 70 66 61 58 59 54 52 52 51 50 47 43
41 44 46 47 48 47 47 48 51 57 59 62 65 67 67 68 70 70 73 74 74 74 74 80 87 91 90 90 86 82 84 83 82 75 67 66 58 58 52 57 52 52 48 42 39
32 36 41 46 50 52 54 53 53 52 54 59 60 63 68 71 71 72 73 75 74 73 74 75 78 83 90 93 93 90 90 88 87 80 71 74 66 63 60 61 59 53 48 44 42
20 25 31 39 42 47 51 53 56 60 62 58 60 61 62 65 67 71 75 78 76 76 76 76 77 79 84 86 95 96 95 94 91 85 78 79 72 70 71 67 65 60 53 48 48
21 23 31 35 38 45 50 50 52 54 57 59 62 65 67 67 69 71 72 74 76 78 80 79 79 81 83 83 88 92 97 97 96 92 87 81 77 79 72 68 65 63 60 53 51
28 33 35 35 37 39 44 49 54 54 53 54 55 55 59 61 65 68 72 74 77 79 79 80 77 82 86 87 87 88 91 97 100 96 93 85 83 76 74 71 70 69 65 59 55
36 39 42 37 37 38 41 44 49 54 52 51 49 49 51 53 57 60 63 65 68 73 79 81 83 80 85 89 89 90 93 99 100 96 95 88 85 82 80 75 72 71 66 63 59
39 48 40 38 40 42 41 41 44 46 49 49 47 48 49 51 53 56 58 59 63 62 67 75 78 81 82 90 94 96 98 102 100 97 93 87 86 89 84 78 73 71 66 59 62
41 38 37 43 42 42 41 40 40 41 43 44 47 47 48 51 53 57 59 63 64 64 64 69 71 71 71 78 96 105 105 105 106 99 95 90 84 91 89 85 82 72 68 67 63
36 32 38 36 36 38 38 35 36 37 39 44 48 46 48 52 55 59 64 65 67 68 70 70 72 72 71 76 86 100 106 105 109 103 95 90 91 97 93 89 84 76 74 67 62
32 29 28 19 22 29 30 32 36 37 38 42 46 47 50 53 57 60 62 66 70 71 73 69 71 76 78 81 82 85 101 108 111 106 99 94 93 96 95 89 85 78 79 69 65
29 30 26 24 20 19 25 32 37 36 40 44 48 53 56 58 63 66 67 68 71 75 71 70 67 74 72 85 81 77 93 107 113 110 102 97 97 94 93 91 89 81 81 78 58
28 29 32 27 27 32 32 36 40 41 45 49 52 54 60 63 64 68 72 73 73 71 72 67 69 69 66 77 75 70 87 103 111 113 107 100 98 96 95 92 86 85 85 74 62
Wind_Direction
207 206 206 207 205 206 205 203 204 202 197 196 199 201 203 202 201 201 197 196 188 179 192 192 174 172 198 160 121 83 349 295 4 49 41 27 45 51 51 44 38 39 31 32 45
209 209 208 208 209 209 210 209 207 208 204 202 201 201 206 206 206 205 202 201 200 191 191 185 184 186 193 188 143 103 318 271 151 208 78 46 27 39 52 53 38 30 32 26 36
212 211 212 211 212 212 212 214 212 209 210 208 207 205 208 210 211 210 211 206 203 205 196 189 191 193 185 179 160 158 277 196 244 268 304 34 359 7 13 16 24 25 29 28 23
213 215 215 215 214 215 216 217 217 216 211 210 214 211 212 211 211 213 216 210 205 208 210 199 202 206 197 205 201 163 124 92 189 298 305 325 328 346 358 1 15 32 34 22 20
217 217 218 219 219 218 219 221 219 221 219 216 214 217 215 213 212 212 214 214 208 209 209 210 202 205 211 208 218 213 181 210 358 283 261 308 330 341 338 348 354 28 21 11 6
219 219 219 220 222 222 222 221 222 223 224 223 219 217 220 215 216 214 216 218 216 211 214 215 213 208 208 211 213 226 228 232 212 289 290 289 306 317 323 330 345 358 1 4 6
222 223 222 222 222 224 225 225 225 225 226 226 224 221 221 220 219 219 219 219 220 219 219 221 220 220 216 209 222 223 227 233 236 268 318 283 289 311 314 335 352 340 346 353 10
225 224 224 225 225 226 226 227 227 229 228 228 228 226 226 224 224 223 223 221 224 224 223 226 225 223 222 222 224 233 230 225 220 251 253 265 275 276 268 281 313 331 345 354 1
228 229 227 227 227 228 228 229 230 230 231 231 231 231 230 230 227 226 226 227 227 227 226 227 231 228 226 229 227 229 231 234 231 259 254 262 254 267 267 268 280 295 311 332 347
227 230 232 231 229 229 230 231 231 231 232 233 233 234 234 234 233 232 231 231 230 230 228 228 229 232 230 230 230 232 234 236 236 236 235 234 246 251 266 262 267 277 283 296 315
229 229 231 232 232 232 231 231 232 233 234 234 235 236 236 236 235 235 236 236 236 235 233 232 231 230 233 235 234 235 236 238 236 234 237 249 239 251 254 266 273 266 280 277 288
231 231 231 232 233 234 234 234 233 235 236 236 237 238 238 238 239 238 238 238 239 238 238 235 236 236 233 236 235 236 239 240 240 238 235 243 242 248 247 256 258 263 272 276 281
236 234 233 234 234 235 235 236 236 236 236 238 239 239 240 241 240 240 240 239 239 240 241 240 239 237 238 238 240 239 238 241 243 243 243 244 247 246 248 248 252 261 269 269 277
238 238 239 238 237 237 238 238 239 239 239 239 240 241 241 242 242 241 241 240 240 240 240 241 243 241 240 240 240 242 241 243 241 242 243 245 248 250 249 250 253 260 262 268 273
243 243 242 240 241 241 241 241 241 242 243 244 244 243 243 243 244 244 245 244 242 241 240 240 243 244 244 242 242 243 242 245 242 243 245 244 244 251 253 253 253 256 258 263 268
244 244 245 245 245 244 244 243 243 244 246 247 247 247 246 246 246 247 247 245 244 243 242 242 241 243 244 245 243 241 243 243 245 243 242 245 243 245 248 250 248 250 254 258 263
249 248 247 245 246 246 246 246 247 247 245 244 246 249 250 249 248 247 247 248 247 245 243 242 242 242 243 243 245 245 243 243 243 242 241 243 241 244 242 247 249 247 251 255 258
263 260 257 253 250 248 245 245 246 248 248 249 249 249 249 250 250 251 250 249 246 247 247 243 243 244 243 243 243 244 245 246 246 244 241 242 242 241 241 243 249 251 247 249 253
282 283 286 268 261 256 250 248 245 245 248 249 249 251 253 253 253 253 252 253 251 248 246 246 246 245 246 244 243 243 245 245 245 245 244 242 243 242 243 246 247 252 253 250 252
291 280 299 279 265 260 257 251 249 248 248 248 249 249 252 252 253 254 256 256 255 254 251 247 242 247 248 246 245 243 243 244 245 244 243 243 242 241 242 241 243 245 249 249 249
293 293 295 280 270 265 258 253 249 248 247 249 252 253 255 257 258 257 255 255 256 258 255 252 248 244 246 247 245 242 242 241 242 242 244 240 243 242 242 240 240 243 245 248 248
302 299 290 276 273 264 256 254 247 245 249 250 249 254 257 256 258 260 260 259 257 256 261 258 252 246 243 245 243 243 239 243 242 241 240 239 239 240 243 240 237 240 241 243 248
312 296 291 279 267 255 251 249 247 242 242 250 256 256 255 258 255 257 261 262 261 259 257 260 261 254 243 245 241 240 239 240 242 238 239 238 236 238 240 240 241 240 239 241 246
323 297 299 287 257 245 246 246 244 246 244 251 251 252 259 261 260 262 264 265 264 263 260 259 262 262 254 251 246 238 239 238 241 240 238 237 233 236 238 238 239 238 237 242 247
323 318 307 314 267 250 243 242 247 246 250 256 264 261 262 266 264 263 265 267 268 266 265 262 262 262 262 258 252 241 234 234 237 237 235 234 231 234 237 238 239 238 241 238 243
316 330 338 309 299 276 255 252 255 256 254 253 260 268 267 267 269 272 271 271 274 273 268 266 261 263 261 260 255 244 234 231 232 233 233 229 229 231 234 236 237 238 235 239 233
315 324 328 325 303 280 273 269 268 269 269 269 267 269 271 270 269 272 275 277 276 276 277 272 266 264 260 260 253 240 232 230 229 229 228 227 227 228 232 233 235 236 238 238 238
Height
10934 10940 10947 10953 10959 10965 10970 10975 10980 10986 10991 10996 11001 11005 11009 11012 11015 11020 11025 11028 11030 11032 11034 11038 11040 11042 11043 11045 11046 11049 11046 11043 11043 11034 11037 11039 11037 11037 11035 11032 11031 11027 11024 11020 11018
10928 10935 10942 10948 10954 10960 10966 10971 10976 10981 10987 10993 10997 11002 11005 11008 11012 11016 11021 11025 11028 11030 11032 11035 11038 11040 11041 11041 11044 11045 11045 11045 11044 11042 11039 11040 11041 11040 11038 11037 11036 11034 11031 11027 11021
10923 10930 10936 10943 10949 10955 10961 10966 10971 10976 10982 10988 10993 10997 11000 11005 11010 11013 11018 11022 11025 11026 11030 11033 11035 11038 11039 11039 11041 11043 11042 11043 11044 11041 11041 11039 11042 11041 11040 11039 11040 11038 11036 11034 11030
10916 10923 10930 10936 10942 10948 10954 10960 10965 10970 10976 10981 10987 10992 10996 11000 11005 11009 11013 11018 11021 11023 11026 11030 11034 11035 11038 11037 11039 11041 11041 11042 11043 11043 11042 11041 11045 11043 11043 11043 11042 11041 11039 11036 11034
10910 10916 10923 10929 10935 10941 10948 10954 10959 10964 10969 10974 10980 10985 10989 10995 11000 11003 11007 11013 11017 11019 11021 11024 11030 11033 11033 11036 11037 11038 11040 11042 11047 11044 11043 11042 11044 11043 11042 11043 11042 11044 11043 11042 11038
10903 10909 10915 10922 10928 10934 10940 10946 10952 10957 10963 10968 10972 10978 10981 10989 10992 10998 11002 11007 11011 11014 11017 11021 11026 11028 11028 11030 11035 11035 11036 11041 11047 11044 11043 11041 11042 11044 11044 11043 11044 11044 11046 11044 11043
10896 10901 10906 10913 10919 10926 10932 10938 10943 10949 10955 10959 10965 10970 10974 10980 10985 10990 10994 10999 11004 11008 11012 11016 11020 11023 11024 11028 11029 11031 11035 11040 11045 11043 11042 11042 11042 11043 11044 11044 11043 11044 11046 11046 11045
10888 10893 10898 10904 10910 10915 10921 10927 10934 10940 10945 10950 10956 10960 10966 10970 10973 10977 10984 10991 10997 11001 11006 11009 11013 11016 11020 11022 11025 11025 11030 11038 11034 11027 11038 11041 11041 11042 11044 11044 11043 11044 11045 11046 11045
10881 10885 10889 10895 10900 10905 10911 10916 10923 10929 10934 10940 10945 10949 10956 10958 10962 10970 10976 10982 10988 10992 10998 11001 11003 11009 11015 11015 11016 11019 11024 11031 11037 11033 11035 11035 11037 11040 11041 11042 11044 11044 11045 11045 11047
10873 10877 10881 10886 10891 10896 10900 10905 10910 10916 10922 10927 10932 10938 10944 10948 10955 10961 10966 10972 10978 10984 10987 10991 10995 11000 11004 11003 11008 11013 11017 11022 11026 11028 11030 11032 11032 11036 11037 11038 11041 11041 11043 11044 11045
10864 10869 10873 10877 10881 10885 10889 10893 10899 10903 10908 10914 10921 10926 10931 10938 10943 10951 10954 10958 10964 10970 10975 10983 10988 10987 10991 10991 11001 11005 11010 11014 11018 11020 11022 11024 11030 11033 11035 11035 11037 11039 11040 11042 11044
10855 10859 10864 10868 10871 10874 10878 10882 10887 10891 10896 10902 10907 10913 10918 10924 10931 10937 10941 10946 10951 10954 10962 10970 10972 10972 10982 10982 10989 10995 11000 11001 11008 11013 11015 11016 11022 11025 11030 11031 11034 11034 11037 11038 11040
10847 10850 10854 10857 10860 10864 10868 10872 10875 10879 10884 10889 10893 10899 10903 10907 10914 10921 10925 10930 10938 10941 10947 10955 10953 10961 10968 10973 10976 10983 10989 10990 10993 10999 11007 11012 11012 11017 11022 11026 11027 11032 11032 11035 11037
10840 10842 10844 10847 10850 10852 10857 10860 10863 10867 10871 10875 10880 10884 10889 10892 10896 10902 10907 10914 10921 10926 10933 10940 10936 10945 10953 10959 10962 10970 10971 10971 10983 10987 10995 11005 11005 11009 11014 11019 11023 11024 11028 11030 11033
10830 10832 10835 10837 10839 10842 10846 10848 10851 10854 10859 10864 10866 10870 10874 10877 10881 10885 10892 10896 10902 10910 10918 10923 10924 10930 10937 10943 10947 10956 10953 10956 10967 10976 10984 10993 11000 10998 11007 11011 11015 11019 11021 11024 11027
10820 10822 10824 10826 10827 10831 10834 10837 10839 10842 10848 10848 10850 10853 10859 10861 10865 10871 10873 10877 10886 10895 10901 10905 10910 10913 10918 10920 10926 10936 10936 10942 10948 10962 10976 10976 10990 10992 10997 10993 11005 11009 11011 11016 11019
10810 10811 10812 10813 10815 10818 10820 10824 10828 10831 10831 10830 10836 10839 10840 10844 10849 10853 10856 10859 10869 10876 10879 10886 10888 10892 10895 10904 10906 10916 10916 10922 10927 10944 10962 10957 10975 10979 10985 10984 10987 10998 11004 11008 11010
10802 10801 10800 10800 10802 10803 10805 10809 10814 10812 10813 10820 10820 10823 10825 10826 10831 10833 10836 10840 10851 10855 10860 10868 10872 10873 10875 10883 10886 10891 10896 10904 10913 10925 10938 10941 10962 10964 10964 10973 10976 10984 10993 10998 11000
10794 10793 10792 10790 10789 10789 10791 10794 10797 10797 10800 10803 10807 10806 10808 10812 10813 10814 10818 10821 10827 10834 10840 10848 10855 10854 10855 10863 10867 10872 10876 10884 10889 10901 10914 10929 10937 10938 10955 10963 10969 10971 10978 10989 10992
10785 10782 10780 10777 10776 10776 10776 10778 10779 10782 10786 10788 10789 10792 10791 10794 10794 10797 10799 10801 10804 10809 10816 10825 10838 10833 10835 10841 10847 10852 10859 10858 10862 10877 10890 10909 10917 10933 10938 10947 10953 10957 10963 10973 10981
10774 10769 10766 10763 10763 10762 10762 10762 10763 10765 10770 10772 10774 10776 10777 10777 10777 10779 10781 10782 10783 10783 10791 10798 10807 10818 10815 10815 10823 10829 10828 10825 10834 10854 10867 10891 10903 10910 10916 10929 10938 10944 10952 10958 10966
10762 10752 10750 10747 10748 10746 10747 10747 10749 10752 10752 10757 10761 10761 10761 10763 10761 10760 10761 10761 10762 10770 10763 10768 10780 10792 10796 10789 10793 10794 10797 10800 10811 10830 10844 10865 10883 10885 10899 10910 10920 10930 10941 10947 10949
10749 10738 10737 10730 10731 10731 10732 10734 10735 10740 10743 10745 10744 10746 10748 10747 10747 10744 10744 10740 10743 10746 10749 10742 10747 10761 10774 10761 10754 10758 10766 10776 10784 10808 10824 10843 10871 10865 10875 10889 10898 10920 10930 10934 10942
10740 10731 10723 10716 10715 10717 10719 10724 10726 10729 10733 10732 10731 10736 10733 10730 10731 10727 10723 10721 10721 10724 10724 10725 10724 10729 10739 10728 10720 10733 10745 10759 10757 10784 10806 10825 10837 10837 10851 10868 10881 10900 10913 10924 10933
10732 10723 10716 10710 10708 10710 10713 10716 10717 10720 10722 10720 10717 10718 10718 10715 10710 10707 10707 10700 10695 10698 10698 10706 10705 10699 10700 10694 10695 10708 10717 10727 10732 10754 10781 10801 10813 10819 10829 10849 10867 10889 10893 10911 10921
10725 10718 10713 10708 10707 10708 10709 10708 10707 10709 10710 10710 10707 10702 10700 10697 10690 10686 10683 10681 10673 10665 10674 10677 10682 10673 10677 10657 10666 10680 10686 10691 10705 10723 10751 10775 10786 10798 10814 10832 10847 10866 10879 10889 10909
10717 10711 10708 10707 10704 10700 10700 10698 10695 10695 10693 10691 10690 10687 10678 10675 10675 10668 10662 10657 10653 10649 10640 10647 10647 10647 10645 10635 10635 10651 10653 10661 10677 10693 10720 10747 10762 10779 10794 10811 10832 10850 10859 10879 10894